Theta_e
313 311 311 311 311 311 312 311 311 312 311 311 309 310 311 314 318 319 326 321 321 326 325 323 320 318 316 314 312 308 304 301 303 301 302 302 301 300 299 300 299 300 300
313 311 310 311 310 310 311 311 310 311 311 313 313 314 315 319 320 324 324 324 324 325 324 321 319 317 316 313 310 307 304 302 303 301 300 297 298 299 299 298 299 297 298
312 313 310 310 311 309 310 311 311 311 312 314 318 319 317 314 316 320 322 324 327 326 325 322 320 318 316 312 309 308 305 301 303 303 300 295 293 295 298 298 297 296 296
314 314 312 313 313 313 312 313 313 313 314 319 320 317 316 314 315 318 323 325 326 325 324 321 319 319 318 313 311 311 308 308 305 304 305 301 298 293 291 296 297 297 297
313 313 313 315 315 314 314 315 317 316 319 321 321 320 316 316 317 318 321 323 323 323 322 320 318 316 315 313 312 311 310 309 306 304 303 302 300 297 296 290 293 296 296
314 314 316 316 316 315 314 315 316 318 320 322 322 322 318 316 318 319 320 319 321 318 321 319 316 315 314 313 312 310 309 307 307 304 302 301 299 299 296 291 292 291 293
314 314 313 314 315 316 315 315 316 317 319 319 322 322 321 320 320 320 319 319 317 317 317 317 315 315 313 312 309 309 308 307 304 303 302 301 300 300 299 295 291 291 291
312 314 315 315 315 316 317 318 317 317 319 321 321 323 323 322 321 321 320 320 319 319 317 316 314 315 313 310 308 309 307 307 305 302 302 300 301 300 298 295 292 288 288
311 313 316 317 317 317 317 319 320 320 322 322 324 324 324 322 321 320 319 320 318 316 315 314 311 310 310 308 307 307 306 305 303 302 300 300 301 299 298 297 295 291 284
312 312 314 317 318 319 320 320 321 321 322 323 324 324 325 322 321 320 318 316 315 312 312 311 309 307 307 307 306 304 304 303 302 301 300 300 299 300 300 299 296 294 289
307 310 313 316 317 322 323 322 322 322 323 323 324 325 324 322 320 319 318 318 311 310 310 309 306 307 306 305 304 304 302 301 300 300 299 299 300 299 299 298 296 293 292
307 309 312 314 314 319 321 322 323 324 324 324 324 326 324 321 320 320 320 318 313 311 309 308 307 306 305 304 303 302 301 300 298 298 298 298 300 298 296 295 294 291 291
305 310 311 312 313 314 320 322 324 324 325 324 326 323 322 321 321 320 317 312 311 311 310 308 307 305 304 303 302 299 298 298 298 298 298 297 297 294 293 292 291 290 294
305 309 311 313 315 316 318 322 324 325 325 325 325 321 319 319 317 314 313 311 312 309 308 307 305 304 302 300 299 298 297 297 297 298 298 298 297 295 292 292 291 292 292
304 306 311 313 315 316 318 321 321 323 324 324 320 315 313 313 312 312 311 311 310 308 305 303 301 300 298 298 298 297 296 296 295 296 297 297 296 295 294 294 292 289 288
304 305 313 317 319 319 319 318 318 318 321 318 316 315 313 312 312 311 309 307 304 302 300 298 298 296 297 293 294 295 295 295 295 295 294 295 294 293 292 292 292 291 290
304 306 311 318 319 318 318 315 316 316 315 315 315 314 314 312 309 305 302 299 298 297 296 296 296 295 295 293 293 293 295 294 293 293 293 293 294 292 290 288 288 287 289
308 309 315 315 316 316 315 315 314 310 311 310 310 308 305 302 300 299 298 296 295 294 291 292 293 294 295 292 292 290 292 292 293 293 292 288 286 287 286 284 283 283 285
308 310 312 313 312 312 311 310 308 307 306 305 303 302 300 298 296 295 294 293 293 293 292 293 292 291 291 291 291 292 292 291 286 287 286 285 284 287 286 282 280 279 279
309 309 308 308 308 306 307 305 303 303 302 302 301 300 299 297 296 294 294 293 293 293 294 294 295 293 293 290 290 289 283 281 280 281 283 285 284 285 285 280 279 277 278
307 306 306 305 303 304 304 301 299 299 300 301 301 300 299 297 297 296 296 295 295 295 293 290 289 287 285 284 286 284 280 279 279 279 279 279 283 282 282 282 279 279 282
305 304 303 302 301 302 301 298 298 300 300 299 298 297 296 297 297 295 294 294 292 289 286 284 282 282 282 283 283 282 281 281 278 278 278 278 280 281 282 282 283 282 280
302 302 301 300 300 301 300 298 297 298 298 297 296 296 296 296 295 291 289 289 288 284 282 283 281 279 279 278 280 280 280 279 277 278 278 279 280 280 280 281 280 278 277
300 300 300 299 298 300 299 298 298 297 296 295 294 292 289 288 286 287 286 283 281 281 281 281 280 279 276 275 275 276 276 277 277 276 275 275 277 276 276 277 277 277 276
299 300 298 297 296 298 297 297 297 296 293 290 289 287 285 282 282 282 281 279 279 281 279 279 280 277 275 275 276 276 276 273 277 272 271 273 274 275 275 275 275 274 274
299 299 297 296 295 295 295 295 294 292 289 286 285 283 283 281 281 280 279 281 281 281 281 281 279 278 277 277 277 277 277 278 278 273 269 267 266 270 272 272 271 271 271
Wind_Speed
16 16 16 15 13 10 13 12 11 13 11 8 8 9 10 8 6 6 7 7 5 5 6 5 6 5 5 6 6 3 4 1 2 3 3 2 3 5 4 4 4 5 7
17 16 17 16 16 15 13 13 15 15 11 9 10 7 9 10 10 6 7 7 7 6 6 6 6 6 4 5 6 5 2 3 3 4 2 1 3 3 4 2 4 5 4
20 19 19 17 17 17 17 18 18 19 14 15 9 8 5 3 4 5 5 8 11 10 8 7 7 6 4 5 6 6 7 4 3 5 5 1 3 1 2 4 3 5 4
18 20 21 19 19 19 18 21 20 19 17 17 12 11 7 9 7 6 7 8 10 9 8 7 8 8 5 5 6 5 4 5 4 1 3 2 4 3 1 2 3 4 6
23 23 23 23 20 19 19 18 18 18 18 17 14 11 11 9 6 6 8 8 7 8 7 6 7 8 5 6 7 6 6 4 4 3 2 1 2 1 2 4 4 1 5
24 24 24 23 23 20 19 18 19 18 18 18 18 14 9 10 7 7 8 5 4 4 6 6 7 6 6 6 5 5 7 5 4 3 2 3 4 3 3 3 5 4 4
26 24 24 22 21 24 24 21 22 21 19 19 18 18 16 16 14 13 9 8 6 4 7 8 6 5 6 6 6 6 7 7 5 5 3 2 3 2 3 3 3 3 3
21 26 27 25 25 26 25 25 24 23 22 22 22 18 19 11 9 11 8 8 8 9 11 7 6 6 6 6 6 4 4 6 5 7 5 3 3 2 2 3 3 3 2
17 22 27 26 24 24 26 25 24 24 22 19 20 19 16 11 11 8 7 7 6 5 8 8 7 7 8 8 7 5 7 6 5 5 5 3 3 1 3 2 2 4 3
17 15 16 23 20 21 21 20 22 26 27 23 19 17 17 11 9 8 8 8 7 7 7 8 8 8 8 7 7 5 6 6 3 3 2 3 2 3 4 3 3 3 3
8 9 9 12 11 11 17 22 20 15 16 16 17 17 14 12 9 9 7 8 7 8 8 9 8 8 7 7 7 7 6 6 6 7 5 5 4 3 3 4 4 4 3
6 9 9 9 11 15 20 21 23 22 19 17 14 15 9 7 6 6 10 10 10 9 10 10 8 7 7 8 9 8 7 7 9 6 6 3 2 5 5 4 6 4 5
8 7 8 9 8 9 23 26 24 23 19 14 12 10 12 13 16 12 10 10 10 10 9 9 9 10 10 10 8 8 8 9 9 8 5 2 1 5 4 4 5 5 7
9 8 7 7 6 6 6 11 14 14 15 15 14 11 12 11 8 7 8 9 10 9 8 7 7 8 8 8 9 10 10 8 6 5 4 2 1 4 6 6 7 7 6
6 8 8 7 7 7 8 9 6 9 10 12 10 10 10 10 9 9 9 9 8 7 7 8 6 7 9 8 11 10 9 8 6 3 4 2 4 10 13 9 9 7 7
9 8 8 8 8 8 9 10 9 9 9 11 13 12 13 12 10 9 8 8 7 7 7 6 9 8 6 16 13 10 7 6 3 4 4 3 7 11 14 16 16 12 11
8 9 10 12 11 10 13 11 8 10 12 12 11 12 11 11 10 10 10 9 8 7 8 8 9 8 8 12 12 10 5 4 4 4 4 6 5 7 6 8 10 8 10
8 8 9 8 8 10 13 13 10 12 12 11 11 12 12 12 11 11 10 9 7 8 7 7 7 8 7 12 11 9 5 3 4 3 3 3 4 2 6 7 8 9 9
8 7 7 9 9 11 10 12 13 11 12 11 12 12 12 12 11 11 10 8 9 7 5 6 7 7 5 10 10 7 3 2 4 4 4 5 5 8 14 9 11 13 12
9 10 9 10 12 7 10 12 9 11 10 9 11 11 11 13 12 11 10 7 7 7 6 6 7 9 5 8 10 6 4 5 3 4 4 8 7 12 13 9 9 13 13
12 9 10 11 9 10 12 11 9 8 9 11 11 10 11 12 10 9 8 8 8 9 6 6 5 9 10 11 17 14 6 3 2 2 3 3 10 14 17 16 7 10 15
12 11 11 9 7 10 12 11 11 9 9 10 12 12 11 9 8 8 7 7 7 7 6 8 7 6 8 13 15 13 10 7 3 1 2 3 15 16 15 11 14 16 11
10 9 11 9 7 9 12 13 8 12 13 13 12 11 10 9 7 6 6 5 7 6 5 7 8 6 5 5 12 13 11 9 3 2 8 14 15 15 9 10 15 9 6
8 7 10 9 7 9 10 11 12 12 13 12 10 7 7 8 8 8 7 7 5 5 4 6 6 6 4 3 3 4 3 4 3 4 5 7 8 6 2 5 6 6 7
7 9 8 7 7 10 11 11 10 10 9 8 7 7 8 10 9 8 6 7 5 5 6 4 4 5 4 4 5 4 3 2 3 3 2 2 2 5 5 5 6 6 7
9 11 9 13 10 10 8 6 7 9 9 9 6 5 7 6 7 8 8 14 13 15 15 13 9 6 9 6 6 7 7 10 10 1 2 3 3 3 6 5 6 5 7
Wind_Direction
160 163 162 166 160 165 151 158 157 157 150 159 175 171 186 208 231 218 200 201 227 231 197 187 174 174 154 181 170 149 168 146 149 82 14 265 254 187 187 186 173 176 162
160 167 168 173 166 169 161 165 169 174 175 177 178 187 199 209 207 196 196 196 202 214 197 180 176 184 148 180 173 155 148 177 183 132 125 287 347 317 229 188 195 193 197
168 173 174 176 168 173 171 176 180 183 184 191 202 212 180 185 192 204 204 205 196 204 198 185 167 184 177 182 178 167 157 182 231 187 153 165 206 238 321 236 214 199 193
175 174 174 178 180 180 182 181 187 192 199 204 204 203 194 201 205 193 196 205 205 205 184 183 170 185 199 176 180 167 152 129 209 252 216 142 152 168 9 313 227 216 213
183 182 183 179 182 182 185 191 190 196 196 200 204 199 205 196 189 186 186 202 201 172 167 192 187 174 180 177 174 162 156 197 154 166 147 178 204 125 136 228 259 274 235
185 187 186 180 181 182 187 192 195 199 200 202 210 207 200 207 186 181 178 176 181 156 168 205 168 167 163 168 181 175 162 164 141 116 147 197 190 192 166 203 246 203 261
183 187 186 187 187 186 189 192 198 206 208 205 210 206 205 206 195 193 182 163 165 182 196 195 184 172 170 166 149 148 152 152 162 159 203 221 220 194 172 158 215 228 272
183 186 189 188 190 193 190 193 197 203 203 205 210 212 212 217 187 197 190 177 176 198 179 181 164 170 179 172 159 146 133 177 171 175 201 197 208 159 164 169 156 302 288
191 187 190 192 190 195 197 195 196 204 206 200 205 211 211 199 190 176 171 176 162 160 167 166 168 174 179 171 157 162 179 173 171 190 188 176 199 123 72 45 75 186 258
206 199 179 186 190 200 201 199 204 203 205 206 201 207 207 180 164 153 163 165 148 150 156 168 175 173 175 162 158 158 166 153 160 165 150 100 57 64 43 16 282 250 211
132 184 185 178 161 168 166 195 204 202 221 230 208 197 193 165 159 156 163 171 149 155 164 169 168 173 171 162 158 162 155 154 133 111 132 83 34 14 335 277 257 255 269
166 137 165 171 187 195 193 208 197 203 208 208 208 193 168 136 128 187 171 159 161 166 170 169 171 175 172 166 165 159 160 135 127 138 95 144 61 347 271 254 260 253 244
149 156 146 159 169 171 191 203 201 200 202 188 173 158 149 166 191 187 158 152 151 165 162 165 172 179 170 164 154 134 127 129 139 129 163 216 59 259 267 276 274 260 269
179 175 160 165 161 129 107 164 187 179 176 169 181 163 172 172 161 142 139 144 153 154 167 165 159 154 148 130 128 122 121 130 146 165 169 160 283 283 287 280 269 272 268
218 179 175 172 158 130 102 107 113 160 153 157 135 129 116 114 112 116 123 129 123 130 133 136 130 122 131 135 132 142 148 156 174 175 173 171 265 299 280 283 279 265 262
198 178 152 142 131 120 108 104 110 92 113 119 124 123 119 122 120 116 118 106 107 117 120 118 126 127 123 137 140 142 143 148 175 177 207 236 259 271 275 276 263 251 263
175 161 157 157 154 137 127 117 112 111 110 112 118 123 125 120 119 117 113 117 118 116 114 117 119 113 123 135 132 129 131 142 144 193 242 269 276 294 347 346 347 342 327
161 145 136 128 132 127 123 127 119 115 118 119 118 116 118 118 114 113 112 111 114 116 116 113 117 121 143 146 142 134 137 163 217 236 285 353 358 360 14 356 339 327 319
146 134 120 122 114 121 123 120 125 124 121 123 125 126 126 118 118 117 117 115 115 117 125 130 126 125 144 155 150 139 152 71 63 54 26 22 356 17 2 353 329 319 309
131 127 119 116 117 116 112 112 114 116 119 123 122 121 120 123 125 129 130 132 131 132 125 127 137 128 108 97 117 117 108 97 39 8 11 1 358 348 343 328 316 308 305
134 119 122 129 129 119 115 109 108 113 115 113 116 112 116 119 121 120 121 128 129 129 123 130 105 102 107 95 94 91 85 90 59 14 339 322 332 329 323 321 302 291 306
136 129 128 130 126 120 119 118 116 121 111 105 108 116 118 126 127 133 137 137 125 123 132 105 90 82 89 91 85 84 83 77 84 360 293 298 326 324 324 326 324 347 327
136 127 130 124 120 117 126 126 134 121 119 119 125 131 136 142 148 140 133 109 117 121 129 122 124 116 87 67 68 57 48 42 41 359 333 326 324 323 325 339 348 342 337
131 116 122 125 119 122 122 122 121 124 127 131 137 135 130 113 92 93 94 103 105 101 94 104 120 127 96 78 51 50 28 23 356 338 314 297 294 291 315 344 346 342 336
112 117 111 105 94 107 110 118 125 125 121 113 111 108 95 98 90 78 87 94 56 91 109 90 99 123 120 77 44 15 1 306 303 292 296 294 340 6 353 344 346 340 334
120 117 109 103 104 97 96 99 102 108 107 103 87 85 104 99 95 98 83 72 90 92 93 100 109 87 103 75 22 360 347 337 330 349 305 329 8 4 346 344 337 336 333